Chicago, Illinois, United States (60601)
Lat: 41.85N, Lon: 87.65W
Wx Zone: ILZ014
Local Info
Past Weather Observations for Sunday, May 22, 2016

NOTE: This archive is for the closest National Weather Service station to Chicago. Information may differ from the station used for current weather conditions.

Click here for Long-term Archive

Time Weather Temperature Dewpoint Humidity Pressure Winds Precip Visibility
23:53
Clear
57°F / 14°C 43°F / 6°C 59% 30.01 in
(1016 mb)
Calm - 10SM
22:53
Clear
57°F / 14°C 43°F / 6°C 59% 30.04 in
(1017 mb)
E 8.1 mph
(E 13 kph)
- 10SM
21:53
Clear
59°F / 15°C 39°F / 4°C 48% 30.04 in
(1017 mb)
E 4.6 mph
(E 7 kph)
- 10SM
20:53
Clear
61°F / 16°C 39°F / 4°C 45% 30.04 in
(1017 mb)
E 9.2 mph
(E 15 kph)
- 10SM
19:53
Partly Cloudy
66°F / 19°C 43°F / 6°C 43% 30.01 in
(1016 mb)
E 5.8 mph
(E 9 kph)
- 10SM
18:53
Partly Cloudy
70°F / 21°C 43°F / 6°C 38% 30.01 in
(1016 mb)
NE 9.2 mph
(NE 15 kph)
- 10SM
17:53
Partly Cloudy
72°F / 22°C 45°F / 7°C 38% 30.01 in
(1016 mb)
NE 9.2 mph
(NE 15 kph)
- 10SM
16:53
Partly Cloudy
73°F / 23°C 45°F / 7°C 36% 30.04 in
(1017 mb)
NE 10.4 mph
(NE 17 kph)
- 10SM
15:53
Partly Cloudy
75°F / 24°C 43°F / 6°C 31% 30.04 in
(1017 mb)
NNE 11.5 mph
(NNE 19 kph)
- 10SM
14:53
Partly Cloudy
77°F / 25°C 43°F / 6°C 30% 30.06 in
(1018 mb)
NNE 10.4 mph
(NNE 17 kph)
- 10SM
13:53
Partly Cloudy
77°F / 25°C 43°F / 6°C 30% 30.06 in
(1018 mb)
NE 11.5 mph
(NE 19 kph)
- 10SM
12:53
Partly Cloudy
77°F / 25°C 43°F / 6°C 30% 30.06 in
(1018 mb)
N 8.1 mph
(N 13 kph)
- 10SM
11:53
Partly Cloudy
75°F / 24°C 43°F / 6°C 31% 30.09 in
(1019 mb)
NE 12.7 mph
(NE 20 kph)
- 10SM
10:53
Partly Cloudy
77°F / 25°C 43°F / 6°C 30% 30.09 in
(1019 mb)
NE 8.1 mph
(NE 13 kph)
- 10SM
09:53
Partly Cloudy
75°F / 24°C 45°F / 7°C 34% 30.09 in
(1019 mb)
NE 6.9 mph
(NE 11 kph)
- 10SM
08:53
Partly Cloudy
75°F / 24°C 43°F / 6°C 31% 30.09 in
(1019 mb)
N 10.4 mph
(N 17 kph)
- 10SM
07:53
Partly Cloudy
72°F / 22°C 43°F / 6°C 36% 30.09 in
(1019 mb)
NW 8.1 mph
(NW 13 kph)
- 10SM
06:53
Partly Cloudy
66°F / 19°C 41°F / 5°C 40% 30.09 in
(1019 mb)
NW 8.1 mph
(NW 13 kph)
- 10SM
05:53
Partly Cloudy
61°F / 16°C 41°F / 5°C 48% 30.09 in
(1019 mb)
NW 6.9 mph
(NW 11 kph)
- 10SM
04:53
Partly Cloudy
55°F / 13°C 39°F / 4°C 55% 30.09 in
(1019 mb)
Calm - 10SM
03:53
Partly Cloudy
55°F / 13°C 39°F / 4°C 55% 30.06 in
(1018 mb)
SSW 4.6 mph
(SSW 7 kph)
- 10SM
02:53
Partly Cloudy
55°F / 13°C 41°F / 5°C 59% 30.06 in
(1018 mb)
W 3.5 mph
(W 6 kph)
- 10SM
01:53
Partly Cloudy
55°F / 13°C 39°F / 4°C 55% 30.06 in
(1018 mb)
Calm - 10SM
00:53
Partly Cloudy
57°F / 14°C 39°F / 4°C 51% 30.06 in
(1018 mb)
Calm - 10SM
Time Weather Temperature Dewpoint Humidity Pressure Winds Precip Visibility


Weather for websites

WeatherForYou.com, LLC is not responsible for any damages or problems caused by this service. Current weather conditions are obtained from the closest station including government and personal stations which may have varying degrees of accuracy. Weather forecasts are derived from the NOAA NDFD. Like all things, this site belongs to Jesus Christ... He just trusts us to maintain it. If you have any questions or comments email webmaster@weatherforyou.com

Copyright © 2016, WeatherForYou.com LLC. All rights reserved.